{"data":{"norad_id":61693,"epoch":"2026-05-25T00:43:45.493824Z","epoch_age_seconds":79216,"freshness":"FRESH","line1":"1 61693U 24195G   26145.03038766  .00000061  00000+0  53662-5 0  9990","line2":"2 61693  53.1592   9.9341 0001104  66.0397 294.0737 15.69705430 91029","mean_motion":15.6970543,"eccentricity":0.0001104,"inclination_deg":53.1592,"raan_deg":9.9341,"arg_perigee_deg":66.0397,"mean_anomaly_deg":294.0737,"bstar":5.3662e-6,"rev_number":9102,"period_min":91.736957296504,"perigee_km":358.99596644039,"apogee_km":360.48368964402,"semimajor_km":6737.8768280422,"source":"CELESTRAK","updated_at":"2026-05-25T13:38:19.440538Z"}}